Weather History for Lamoni, IA

Change the Weather History Date:

Saturday, November 24, 2012

  Actual Average Record
Temperature  
Mean Temperature 25 °F 35 °F  
Max Temperature 36 °F 44 °F 65 °F (2011)
Min Temperature 14 °F 26 °F 7 °F (2013)
Degree Days  
Heating Degree Days 40 30  
Month to date heating degree days 474 574  
Since 1 July heating degree days 1009 1058  
Cooling Degree Days 0 0  
Month to date cooling degree days 1 0  
Year to date cooling degree days 1312 946  
Moisture  
Dew Point 16 °F    
Average Humidity 64    
Maximum Humidity 80    
Minimum Humidity 47    
Precipitation  
Precipitation 0.00 in 0.06 in 0.37 in (1993)
Month to date precipitation 1.65 1.87  
Sea Level Pressure  
Sea Level Pressure 30.18 in    
Wind  
Wind Speed 7 mph (South)    
Max Wind Speed 20 mph    
Max Gust Speed 24 mph    
Visibility 10 miles    
Events      
T = Trace of Precipitation, MM = Missing Value Source: NWS Daily Summary

Daily Weather History Graph

Daily Weather History Graph

Search for Another Location

Airport:

Trip Planner

Search our weather history database for the weather conditions in past years. The results will help you decide how hot, cold, wet, or windy it might be!

Date:

Astronomy

Nov. 24, 2012 Rise Set
Actual Time 7:13 AM CST 4:51 PM CST
Civil Twilight 6:43 AM CST 5:21 PM CST
Nautical Twilight 6:09 AM CST 5:55 PM CST
Astronomical Twilight 5:36 AM CST 6:27 PM CST
Moon 2:37 PM CST (11/24) 3:29 AM CST (11/24)
Length of Visible Light 10h 38m
Length of Day
9h 38m
Waxing Gibbous, 87% of the Moon is Illuminated
Nov 24
Waxing Gibbous
Nov 28
Full
Dec 6
Last Quarter
Dec 13
New
Dec 19
First Quarter

Hourly Weather History & Observations

Time (CST) Temp. Windchill Dew Point Humidity Pressure Visibility Wind Dir Wind Speed Gust Speed Precip Events Conditions
12:53 AM 19.9 °F 10.1 °F 12.0 °F 71% 30.41 in 10.0 mi NW 8.1 mph - N/A   Clear
1:53 AM 17.1 °F 10.0 °F 10.0 °F 74% 30.40 in 10.0 mi WNW 4.6 mph - N/A   Clear
2:53 AM 17.1 °F 8.7 °F 10.9 °F 77% 30.40 in 10.0 mi NW 5.8 mph - N/A   Clear
3:53 AM 18.0 °F 12.7 °F 10.9 °F 74% 30.38 in 10.0 mi North 3.5 mph - N/A   Clear
4:53 AM 15.1 °F - 10.9 °F 84% 30.37 in 10.0 mi Calm Calm - N/A   Clear
5:53 AM 17.1 °F - 12.0 °F 81% 30.37 in 10.0 mi Calm Calm - N/A   Clear
6:53 AM 17.1 °F 11.7 °F 12.0 °F 81% 30.37 in 10.0 mi West 3.5 mph - N/A   Clear
7:53 AM 19.0 °F 13.9 °F 12.9 °F 77% 30.35 in 10.0 mi SW 3.5 mph - N/A   Clear
8:53 AM 21.9 °F - 14.0 °F 72% 30.35 in 10.0 mi Calm Calm - N/A   Clear
9:53 AM 23.0 °F 15.8 °F 15.1 °F 72% 30.33 in 10.0 mi South 5.8 mph - N/A   Scattered Clouds
10:53 AM 28.0 °F 18.6 °F 17.1 °F 63% 30.30 in 10.0 mi South 10.4 mph - N/A   Clear
11:53 AM 30.9 °F 22.2 °F 16.0 °F 54% 30.24 in 10.0 mi South 10.4 mph - N/A   Clear
12:53 PM 34.0 °F 28.0 °F 17.1 °F 50% 30.17 in 10.0 mi SSE 6.9 mph - N/A   Clear
1:53 PM 34.0 °F 25.0 °F 17.1 °F 50% 30.13 in 10.0 mi SE 12.7 mph - N/A   Clear
2:53 PM 35.1 °F 25.5 °F 17.1 °F 48% 30.06 in 10.0 mi SSE 15.0 mph 20.7 mph N/A   Clear
3:53 PM 35.1 °F 27.4 °F 17.1 °F 48% 30.03 in 10.0 mi SSE 10.4 mph 19.6 mph N/A   Clear
4:53 PM 34.0 °F 26.0 °F 18.0 °F 52% 30.01 in 10.0 mi SSE 10.4 mph - N/A   Clear
5:53 PM 33.1 °F 27.7 °F 19.0 °F 56% 30.00 in 10.0 mi SSE 5.8 mph - N/A   Clear
6:53 PM 33.1 °F 26.9 °F 19.0 °F 56% 30.00 in 10.0 mi South 6.9 mph - N/A   Clear
7:53 PM 33.1 °F 26.1 °F 19.9 °F 59% 29.96 in 10.0 mi South 8.1 mph - N/A   Clear
8:53 PM 33.1 °F 26.1 °F 19.9 °F 59% 29.94 in 10.0 mi South 8.1 mph - N/A   Clear
9:53 PM 34.0 °F 26.6 °F 21.0 °F 59% 29.93 in 10.0 mi South 9.2 mph - N/A   Clear
10:53 PM 33.1 °F 26.1 °F 21.9 °F 64% 29.91 in 10.0 mi South 8.1 mph - N/A   Clear
11:53 PM 33.1 °F 27.7 °F 21.9 °F 64% 29.91 in 10.0 mi South 5.8 mph - N/A   Clear